EW5246 Weather Reports


time (UTC)temp
F
wind
direction
speed
knots
gust
knots
rain 1hr
in
rain 24hr
in
rain mn
in
humidity
%
barometer
mb
20260510104541 46 300 0.9 3.5 0.00 0.41 0.00 87 1013.3
20260510103040 45 24 0.0 2.6 0.00 0.41 0.00 88 1013.0
20260510101537 46 339 0.0 1.7 0.00 0.41 0.00 87 1012.8
20260510100032 46 16 0.9 2.6 0.00 0.41 0.00 85 1012.6
20260510094544 47 328 0.0 1.7 0.00 0.41 0.00 86 1012.6
20260510093026 47 6 0.0 2.6 0.00 0.41 0.00 86 1012.2
20260510091525 47 37 0.9 1.7 0.00 0.41 0.00 88 1011.9
20260510090024 47 37 0.0 1.7 0.00 0.41 0.00 90 1011.5
20260510084521 47 37 0.0 0.9 0.00 0.41 0.00 90 1011.5
20260510083017 47 37 0.0 0.9 0.00 0.41 0.00 90 1011.4
20260510081517 48 37 0.0 0.9 0.00 0.41 0.00 91 1011.3
20260510080014 48 37 0.0 0.9 0.00 0.44 0.00 91 1010.9
20260510074509 49 37 0.0 2.6 0.00 0.44 0.00 91 1010.7
20260510073008 49 55 0.9 4.3 0.00 0.44 0.00 95 1010.4
20260510071506 49 38 1.7 4.3 0.00 0.44 0.00 97 1010.3
20260510070008 49 49 0.0 4.3 0.00 0.54 0.00 96 1010.1
20260510064501 49 26 0.0 3.5 0.00 0.54 0.00 97 1010.0
20260510063100 50 338 0.9 4.3 0.00 0.54 0.00 97 1009.9
20260510061556 51 326 0.0 3.5 0.00 0.54 0.00 97 1009.8
20260510060055 51 32 0.9 2.6 0.00 0.54 0.00 97 1009.6
20260510054552 52 335 0.9 4.3 0.00 0.60 0.00 97 1009.7
20260510053100 52 314 0.9 6.1 0.00 0.60 0.00 97 1009.6
20260510051550 52 188 2.6 8.7 0.00 0.60 0.00 97 1009.1
20260510050046 52 224 0.9 5.2 0.00 0.60 0.00 97 1008.3
20260510044543 52 211 0.9 4.3 0.01 0.63 0.00 97 1008.0
20260510043053 52 210 0.9 4.3 0.01 0.63 0.00 97 1007.9
20260510041541 52 214 0.9 3.5 0.01 0.63 0.00 97 1007.7
20260510040043 53 212 0.9 5.2 0.01 0.63 0.00 97 1008.0
20260510034539 53 191 1.7 7.0 0.00 0.65 0.63 97 1008.1
20260510033036 52 169 3.5 8.7 0.06 0.65 0.63 97 1008.3
20260510031540 52 195 1.7 3.5 0.06 0.65 0.63 97 1007.9
20260510030053 52 229 0.9 2.6 0.06 0.65 0.63 97 1007.6
20260510024553 52 207 4.3 13.9 0.06 0.65 0.63 97 1007.9
20260510023053 53 232 3.5 8.7 0.00 0.59 0.56 97 1008.2
20260510021553 53 218 0.0 3.5 0.00 0.59 0.56 97 1007.4
20260510020054 52 217 0.9 2.6 0.00 0.59 0.56 97 1007.7
20260510014550 52 217 0.0 2.6 0.00 0.61 0.56 97 1007.3
20260510013052 52 214 0.9 2.6 0.00 0.61 0.56 97 1007.3
20260510011552 52 214 0.0 4.3 0.00 0.61 0.56 96 1007.3
20260510010010 53 217 0.9 3.5 0.00 0.65 0.56 96 1007.0
20260510004509 53 247 0.9 3.5 0.00 0.65 0.56 96 1007.0
20260510003009 53 232 0.9 3.5 0.04 0.65 0.56 96 1007.0
20260510001510 53 274 0.9 4.3 0.11 0.65 0.56 96 1006.9
20260510000008 53 198 2.6 6.1 0.34 0.71 0.56 96 1007.0
20260509234507 53 245 1.7 10.4 0.34 0.71 0.56 96 1006.7
20260509233006 53 264 6.1 17.4 0.30 0.67 0.53 95 1007.2
20260509231505 54 288 6.1 21.7 0.22 0.59 0.45 93 1006.5
20260509230007 64 310 7.8 19.1 0.00 0.52 0.23 68 1006.5
20260509224507 67 203 4.3 8.7 0.00 0.52 0.23 57 1004.4
20260509223003 67 193 3.5 9.6 0.00 0.52 0.23 55 1004.4
20260509221502 68 243 7.0 15.6 0.00 0.52 0.23 54 1004.6
20260509220005 69 218 4.3 13.9 0.00 0.54 0.23 53 1004.4
20260509214632 69 200 4.3 16.5 0.00 0.54 0.23 54 1004.3
20260509213102 69 152 4.3 12.2 0.00 0.54 0.23 55 1004.3
20260509211556 69 179 5.2 13.0 0.00 0.54 0.23 56 1004.4
20260509210024 69 191 5.2 12.2 0.00 0.54 0.23 57 1004.7
20260509204523 69 207 4.3 12.2 0.00 0.54 0.23 56 1004.9
20260509203022 69 202 2.6 10.4 0.00 0.54 0.23 58 1005.1
20260509201518 68 195 4.3 14.8 0.00 0.54 0.23 57 1005.3
20260509200017 68 199 5.2 13.0 0.00 0.54 0.23 57 1005.3
20260509194513 68 209 7.0 13.0 0.00 0.54 0.23 57 1005.5
20260509193021 67 186 4.3 15.6 0.00 0.54 0.23 59 1005.9
20260509191508 67 179 2.6 11.3 0.00 0.54 0.23 60 1006.2
20260509190007 66 212 5.2 12.2 0.00 0.54 0.23 60 1006.4
20260509184519 66 199 4.3 13.0 0.00 0.54 0.23 61 1006.5
20260509183007 66 205 4.3 12.2 0.00 0.54 0.23 60 1006.5
20260509181503 66 200 3.5 11.3 0.00 0.54 0.23 61 1006.2
20260509180109 66 198 2.6 8.7 0.00 0.54 0.23 62 1006.5
20260509174621 66 191 3.5 7.8 0.00 0.54 0.23 61 1006.5
20260509173100 64 240 2.6 9.6 0.00 0.54 0.23 62 1006.6
20260509171558 65 165 4.3 8.7 0.00 0.54 0.23 63 1006.5
20260509170010 64 193 4.3 9.6 0.00 0.54 0.23 65 1006.4
20260509164504 63 205 3.5 7.0 0.00 0.54 0.23 70 1006.7
20260509163003 64 221 2.6 9.6 0.00 0.54 0.23 70 1006.9
20260509161500 63 223 2.6 7.0 0.00 0.54 0.23 71 1007.1
20260509160058 61 205 2.6 8.7 0.00 0.54 0.23 72 1007.2
20260509154554 59 196 1.7 6.1 0.00 0.54 0.23 80 1007.3
20260509153104 59 257 2.6 6.1 0.00 0.54 0.23 81 1007.1
20260509151553 58 238 1.7 9.6 0.00 0.54 0.23 84 1007.2
20260509150010 57 246 2.6 6.1 0.00 0.54 0.23 90 1007.1
20260509144505 56 207 2.6 7.0 0.00 0.54 0.23 92 1007.2
20260509143004 55 211 0.9 5.2 0.00 0.54 0.23 96 1007.1
20260509141600 54 243 0.9 6.1 0.00 0.54 0.22 97 1007.2
20260509134557 53 198 1.7 6.1 0.00 0.54 0.22 97 1007.2
20260509133054 52 223 1.7 6.1 0.00 0.54 0.22 97 1007.3
20260509131552 52 212 0.9 3.5 0.00 0.54 0.22 97 1007.1
20260509130051 52 192 0.9 5.2 0.00 0.54 0.22 97 1007.3
20260509124550 51 195 0.0 4.3 0.00 0.56 0.22 97 1007.4
20260509123042 51 201 0.9 4.3 0.00 0.56 0.22 97 1007.7
20260509121542 51 192 1.7 5.2 0.00 0.56 0.22 97 1007.7
20260509120040 51 237 0.9 5.2 0.00 0.56 0.22 97 1007.7
20260509114536 50 146 0.0 2.6 0.00 0.56 0.22 97 1007.7
20260509113039 50 148 0.9 2.6 0.00 0.56 0.22 97 1007.6
20260509111533 50 203 0.0 2.6 0.00 0.56 0.22 97 1007.7
20260509110032 50 134 0.9 3.5 0.00 0.56 0.22 97 1007.4